Location: Cruquius
(52.3348°N, 4.6319°E)
Time: 20:04:02
(UTC+00:00)

CZ-2C R/B - Pass Details

Date: 12 May 2021
Orbit: 640 x 703 km, 98.3° (Epoch: 21 June)

Event Time Altitude Azimuth Distance (km) Brightness Sun altitude
Rises 20:03:23 0° 21° (NNE) 2,974 7.3 -5.4°
Reaches altitude 10° 20:05:45 10° 29° (NNE) 2,065 6.4 -5.7°
Maximum altitude 20:09:55 37° 97° (E) 1,031 4.3 -6.2°
Drops below altitude 10° 20:14:07 10° 165° (SSE) 2,081 5.8 -6.7°
Enters shadow 20:16:21 - 173° (S) 2,939 6.6 -6.9°
